This demonstration page uses our WeatherBlox Daily Observations layout. Learn more.

Left ArrowRight Arrow

41.55636, -103.73856

Hourly Observations for January 19, 2021

Temp ( °F °C ) Dew Point ( °F °C ) Humidity (%) Winds ( mph kmh ) Pressure ( in mb ) Visibility ( mi km ) Precip ( " mm )
12:58 am 00:58 Clear 12 -11.1 9 -12.7 88 88 NW 12 19 30.42 1030 10 16.0934 0 0
1:58 am 01:58 Mostly Cloudy 15 -9.7 10 -12.2 82 82 WSW 6 9 30.43 1031 10 16.0934 0 0
2:58 am 02:58 Partly Cloudy 18 -8 12 -11.3 77 77 W 7 11 30.43 1030 10 16.0934 0 0
3:58 am 03:58 Clear 20 -6.6 15 -9.2 82 82 WNW 13 20 30.45 1031 10 16.0934 0 0
4:58 am 04:58 Partly Cloudy 20 -6.7 15 -9.4 81 81 WNW 12 19 30.49 1033 10 16.0934 0 0
5:58 am 05:58 Mostly Cloudy 22 -5.6 17 -8.4 81 81 WNW 10 17 30.52 1033 10 16.0934 0 0
6:58 am 06:58 Mostly Cloudy 22 -5.7 17 -8.2 83 83 W 7 11 30.54 1034 10 16.0934 0 0
7:58 am 07:58 Partly Cloudy 24 -4.5 17 -8.1 76 76 NW 13 20 30.55 1035 10 16.0934 0 0
8:58 am 08:58 Sunny 26 -3.5 18 -7.6 74 74 W 8 13 30.57 1035 10 16.0934 0 0
9:58 am 09:58 Sunny 30 -0.9 18 -8 59 59 NNW 21 33 30.55 1034 10 16.0934 0 0
10:58 am 10:58 Sunny 32 0 17 -8.4 54 54 NNW 20 31 30.56 1035 10 16.0934 0 0
11:58 am 11:58 Mostly Sunny 33 0.6 17 -8.6 51 51 NW 14 22 30.53 1034 10 16.0934 0 0
12:58 pm 12:58 Sunny 35 1.6 15 -9.6 44 44 W 13 20 30.5 1033 10 16.0934 0 0
1:58 pm 13:58 Sunny 37 2.5 11 -11.5 35 35 WNW 12 19 30.45 1031 10 16.0934 0 0
2:58 pm 14:58 Sunny 37 2.6 10 -12.2 33 33 NNW 12 19 30.44 1031 10 16.0934 0 0
3:58 pm 15:58 Sunny 36 2 8 -13.1 32 32 NW 9 15 30.41 1030 10 16.0934 0 0
4:58 pm 16:58 Clear 32 0.2 8 -13.5 35 35 W 3 6 30.41 1030 10 16.0934 0 0
5:58 pm 17:58 Clear 28 -2.3 8 -13.6 42 42 SSW 5 7 30.43 1031 10 16.0934 0 0
6:58 pm 18:58 Clear 16 -9.1 7 -14 68 68 SSW 12 19 30.45 1031 10 16.0934 0 0
7:58 pm 19:58 Clear 24 -4.4 11 -11.9 56 56 SSW 20 31 30.35 1028 10 16.0934 0 0
8:58 pm 20:58 Clear 24 -4.5 11 -11.9 57 57 SW 18 30 30.33 1027 10 16.0934 0 0
9:58 pm 21:58 Clear 25 -4.1 11 -11.5 57 57 SW 20 31 30.26 1025 10 16.0934 0 0
10:58 pm 22:58 Clear 26 -3.2 12 -10.9 56 56 SSW 25 41 30.2 1023 10 16.0934 0 0
11:58 pm 23:58 Clear 26 -3.3 13 -10.8 57 57 SW 25 41 30.14 1021 10 16.0934 0 0

Powered by AerisWeather